Wind_Speed
26 26 25 26 27 28 28 29 30 30 31 32 32 32 32 32 32 33 34 35 34 33 33 32 32 32 32 33 33 34 34 34 33 33 34 36 36 37 38 38 38 38 37 37
27 27 26 27 28 28 28 29 29 30 31 32 33 32 32 32 31 32 34 34 34 33 32 32 32 32 33 33 33 33 34 34 34 34 35 36 37 37 37 38 38 38 38 39
27 27 27 28 28 29 29 29 29 30 31 33 33 33 32 31 31 32 32 33 33 32 32 33 33 33 33 33 33 34 34 35 34 35 35 37 38 38 38 38 38 38 38 39
27 27 27 28 28 29 29 29 30 30 31 32 33 33 31 30 31 31 32 32 32 33 33 33 32 32 32 33 34 34 35 35 35 36 36 37 38 38 38 38 38 39 39 40
27 27 28 28 28 29 29 29 30 30 31 32 31 33 31 29 30 30 30 30 31 31 31 31 31 31 32 33 33 34 35 36 36 36 37 37 39 40 40 40 40 40 40 41
27 27 28 28 28 28 28 28 29 30 31 32 30 32 30 27 28 29 29 29 30 30 31 31 31 32 32 33 33 33 34 35 35 36 37 37 39 40 41 42 42 41 41 42
28 28 28 28 28 28 27 28 29 30 30 31 29 30 29 26 26 27 28 28 29 30 31 31 31 32 32 33 34 34 35 35 35 36 36 38 39 40 41 41 42 42 42 41
28 28 27 27 27 28 28 28 28 30 30 30 29 29 28 26 25 25 27 27 28 29 30 31 32 32 33 34 34 35 35 35 36 36 36 37 37 39 40 41 42 42 43 43
28 28 27 26 26 27 27 28 28 29 30 30 30 29 28 27 26 25 26 27 28 28 30 31 32 32 33 34 34 34 35 36 36 36 36 36 36 37 38 39 41 42 43 43
28 28 27 26 26 27 27 27 27 28 29 30 31 29 28 27 26 26 26 27 28 29 29 30 32 32 32 32 33 34 35 36 37 37 37 37 37 38 38 39 41 42 43 43
27 28 27 27 26 27 27 26 27 28 29 30 30 29 28 27 26 26 26 27 27 28 29 29 30 30 30 31 31 33 34 34 36 37 37 38 38 39 39 40 41 42 43 44
26 27 27 27 26 26 26 26 26 27 27 28 29 29 28 27 27 26 26 26 27 28 28 29 29 29 30 30 30 31 32 32 33 35 36 37 37 38 38 39 40 42 43 44
25 26 26 26 26 25 25 25 25 27 28 28 29 29 27 26 26 26 26 26 27 28 28 28 28 28 28 29 30 31 31 32 33 34 35 37 38 38 39 40 41 42 43 45
26 26 25 25 25 24 24 25 25 27 28 28 28 27 27 27 27 26 26 27 27 27 27 27 28 27 27 28 29 30 31 32 33 34 35 36 37 38 40 40 41 42 43 44
26 26 25 25 25 25 25 25 26 27 27 28 27 27 26 27 27 27 27 27 27 27 28 28 28 28 28 28 29 30 31 32 33 33 34 35 36 37 38 39 40 42 43 44
26 26 25 25 25 26 26 26 26 27 27 28 27 27 25 26 27 27 27 27 27 27 28 28 29 29 30 30 30 31 31 32 33 34 35 35 36 36 37 38 39 41 43 44
25 25 26 26 25 27 26 24 26 26 26 27 28 26 25 25 25 25 26 26 26 27 27 28 29 30 31 31 31 31 31 32 33 34 34 35 36 37 38 39 40 41 42 43
25 25 26 26 26 27 24 23 24 24 24 25 25 26 26 25 26 26 25 25 25 26 27 27 27 28 29 30 31 31 32 33 33 33 34 35 36 37 38 39 40 41 41 42
25 26 26 26 27 26 24 23 22 23 22 22 23 24 25 25 25 26 26 26 26 27 27 28 28 28 29 29 30 31 31 32 33 33 34 34 35 36 38 39 40 40 41 42
25 26 26 26 26 25 23 23 22 23 22 22 23 23 24 24 25 25 26 26 27 27 28 28 29 29 29 30 30 30 30 31 31 32 33 34 35 36 37 38 39 40 40 41
24 25 25 25 25 24 22 22 22 22 22 22 22 23 24 24 24 25 25 26 26 27 27 28 29 29 29 29 30 30 30 31 31 31 32 33 34 36 37 37 38 38 39 39
24 24 24 24 24 23 21 21 21 21 21 22 22 23 24 24 24 25 25 26 26 26 27 27 28 28 29 29 29 30 30 31 31 32 32 33 34 34 35 36 36 37 38 39
25 24 24 24 23 22 22 21 21 22 22 22 22 22 23 23 24 24 24 25 25 25 26 26 27 27 27 28 28 29 29 30 31 32 32 33 33 34 34 35 35 36 37 38
25 24 25 24 22 22 21 21 22 23 22 22 22 22 22 23 23 23 23 24 24 25 25 25 26 26 26 26 26 27 28 30 30 31 32 33 34 34 35 36 36 36 37 37
24 24 24 24 22 23 22 22 22 22 22 22 22 22 22 23 23 23 23 23 24 24 24 25 25 25 25 26 26 27 28 29 30 31 32 33 34 35 35 36 36 37 37 37
23 24 24 23 22 22 22 22 22 22 22 22 22 22 23 22 22 22 23 23 24 24 24 24 24 24 25 26 27 28 28 29 30 31 32 33 34 34 35 36 36 37 38 39
Wind_Direction
266 264 265 265 265 265 264 262 260 259 260 260 260 259 258 257 256 255 254 254 252 250 250 250 249 249 250 249 249 248 249 249 249 249 247 245 244 245 246 247 249 251 251 253
266 265 265 265 265 265 265 264 262 261 261 261 260 259 259 258 257 256 255 254 252 251 251 250 249 249 250 250 248 248 249 248 247 248 248 246 245 245 246 248 250 251 252 253
267 266 266 266 266 265 265 265 264 265 264 262 261 259 259 258 257 256 255 253 251 251 251 251 251 250 250 250 250 249 250 248 249 249 248 247 246 246 247 248 250 251 251 253
267 266 266 266 266 266 265 265 265 265 265 264 262 261 259 258 256 256 255 253 252 251 250 249 249 249 249 250 251 252 252 250 251 251 251 249 247 247 248 248 249 249 251 254
268 268 267 266 266 265 265 264 264 264 264 264 263 263 261 259 257 255 254 253 252 250 250 249 248 248 249 251 252 251 252 252 253 254 253 251 248 249 249 249 251 252 252 253
268 268 268 266 264 264 264 264 263 263 262 262 262 264 264 261 258 255 253 253 251 250 250 249 248 249 249 251 252 252 252 253 254 255 255 253 252 251 250 251 252 253 254 255
269 269 269 267 263 262 262 262 262 262 261 261 262 263 263 260 259 257 255 252 251 251 250 250 250 250 250 251 252 253 253 253 254 254 255 255 255 254 253 253 253 254 254 256
271 270 268 267 264 263 262 262 262 263 262 262 261 262 262 261 260 258 256 254 252 252 251 252 253 253 252 252 253 254 253 254 254 255 256 257 258 257 256 255 255 255 256 257
270 269 267 266 265 263 262 261 262 263 262 262 262 261 261 262 263 261 259 258 256 255 255 255 255 256 255 254 254 255 254 254 255 256 257 259 259 259 258 257 257 256 257 258
268 268 266 267 265 263 263 262 261 261 262 262 263 263 263 262 264 263 261 260 259 257 257 257 257 257 255 255 254 255 256 256 256 257 259 259 259 260 260 260 260 259 259 261
267 267 266 266 267 265 262 260 259 260 260 261 263 263 264 264 264 263 261 259 258 258 258 257 256 256 256 255 255 255 256 257 257 258 260 260 260 261 262 262 262 261 262 263
268 268 267 266 266 264 261 259 258 260 260 261 262 262 263 263 263 263 262 259 258 258 258 257 256 256 256 255 255 256 256 258 259 259 260 261 262 262 263 264 264 263 263 264
268 269 268 267 266 264 261 260 258 258 259 261 262 263 262 263 263 264 263 261 259 259 259 258 257 257 255 255 255 256 258 259 260 261 262 262 263 263 264 265 265 265 265 266
266 267 267 267 266 263 261 260 258 258 258 260 262 263 262 262 262 263 263 262 259 258 259 259 258 258 258 257 257 258 259 261 262 262 263 264 265 265 265 266 266 267 268 268
265 266 266 265 263 262 263 262 260 259 259 260 260 260 260 261 262 262 263 262 260 260 260 261 260 260 261 260 259 260 262 263 264 265 266 266 267 267 268 268 268 268 269 270
264 265 265 266 263 263 264 263 262 261 259 260 260 259 259 260 261 261 262 262 262 261 262 263 263 263 263 262 262 263 264 264 265 266 268 268 268 269 270 270 270 270 271 271
263 264 264 265 264 264 264 265 263 262 261 259 259 260 260 259 259 260 262 264 264 262 263 264 265 265 264 264 265 266 266 266 266 268 269 268 269 270 271 271 272 273 273 274
261 262 263 265 265 264 265 265 264 262 260 261 261 260 260 259 259 260 262 264 266 265 266 265 265 265 265 266 267 267 267 267 268 269 271 270 271 272 274 274 275 275 275 275
259 261 262 265 266 265 262 264 264 262 260 260 261 261 260 261 261 262 264 265 266 266 267 266 267 267 267 268 268 268 268 268 269 270 271 272 273 274 275 276 276 276 276 276
260 261 262 264 265 267 264 263 263 263 261 260 260 261 261 261 262 263 265 266 266 266 267 267 268 269 268 269 269 269 269 270 271 271 272 274 275 276 277 276 276 276 277 277
260 261 262 263 265 264 263 264 264 264 263 261 261 262 263 264 265 265 266 267 266 266 268 268 268 268 268 269 270 270 270 272 273 274 275 276 278 279 279 278 278 278 278 278
261 262 261 261 263 263 264 264 264 265 264 264 265 265 265 265 267 268 268 269 268 268 269 269 270 269 268 269 271 272 272 273 275 276 278 278 279 280 281 281 280 280 279 279
261 261 261 261 262 264 263 262 262 263 264 264 265 267 267 267 268 270 271 271 271 270 270 271 271 270 269 269 270 271 273 274 276 278 279 280 281 282 283 283 283 283 282 281
261 260 260 260 260 261 263 262 262 263 264 264 266 268 269 269 270 271 272 272 273 272 272 272 272 270 269 269 272 273 275 276 278 280 281 282 282 283 284 284 284 285 284 283
260 259 258 258 258 258 260 262 262 262 263 265 266 268 271 270 270 271 272 273 274 274 274 274 274 272 271 272 273 274 277 279 281 282 284 284 284 285 285 286 286 286 285 285
261 260 258 257 256 257 258 259 262 264 263 265 267 270 271 271 270 271 272 273 274 274 274 274 275 274 273 274 276 277 279 281 283 284 285 286 286 286 287 287 288 288 288 286
Height
5712 5714 5713 5714 5713 5714 5713 5713 5714 5714 5714 5714 5715 5715 5716 5716 5717 5717 5717 5718 5719 5719 5720 5721 5722 5724 5725 5726 5728 5729 5730 5732 5733 5735 5737 5739 5743 5746 5749 5751 5753 5755 5756 5758
5705 5706 5706 5705 5705 5705 5705 5705 5706 5706 5706 5706 5706 5707 5708 5708 5708 5708 5709 5709 5710 5711 5712 5714 5715 5716 5717 5719 5720 5722 5723 5724 5726 5728 5730 5732 5735 5738 5741 5743 5745 5747 5748 5750
5697 5698 5697 5698 5698 5697 5698 5698 5698 5697 5697 5697 5697 5698 5700 5700 5699 5699 5700 5701 5702 5703 5705 5706 5707 5709 5710 5711 5713 5714 5715 5717 5719 5721 5722 5724 5727 5730 5732 5735 5737 5738 5739 5741
5689 5690 5690 5689 5690 5689 5690 5690 5690 5689 5688 5688 5689 5688 5691 5692 5691 5691 5692 5693 5694 5695 5696 5697 5699 5700 5702 5704 5705 5707 5708 5709 5711 5713 5715 5717 5719 5721 5723 5726 5728 5729 5731 5732
5681 5682 5681 5681 5682 5681 5682 5682 5681 5681 5680 5680 5681 5680 5683 5683 5684 5684 5685 5685 5686 5687 5688 5689 5691 5693 5695 5696 5697 5699 5700 5702 5703 5705 5706 5708 5710 5712 5714 5717 5719 5720 5722 5724
5673 5673 5673 5673 5673 5673 5673 5674 5673 5672 5672 5672 5674 5673 5674 5676 5677 5677 5677 5677 5678 5679 5680 5682 5683 5685 5687 5688 5689 5691 5692 5694 5695 5697 5698 5700 5702 5704 5705 5708 5710 5711 5713 5714
5665 5665 5665 5665 5665 5665 5666 5666 5665 5664 5663 5664 5666 5664 5667 5668 5669 5669 5670 5670 5670 5671 5672 5674 5675 5677 5678 5680 5682 5683 5684 5686 5687 5688 5690 5691 5693 5694 5696 5698 5700 5701 5703 5704
5656 5657 5657 5657 5657 5657 5658 5658 5658 5657 5657 5657 5657 5657 5660 5661 5661 5661 5662 5663 5663 5664 5665 5666 5667 5668 5670 5671 5673 5674 5676 5677 5679 5680 5681 5682 5683 5685 5686 5688 5689 5690 5692 5693
5647 5648 5649 5649 5649 5649 5649 5649 5650 5650 5649 5649 5649 5651 5653 5653 5654 5654 5655 5655 5655 5656 5657 5658 5659 5660 5661 5663 5664 5665 5666 5668 5669 5671 5672 5673 5675 5675 5677 5678 5679 5680 5681 5682
5639 5640 5641 5640 5641 5641 5642 5642 5642 5641 5640 5640 5641 5643 5646 5646 5647 5647 5647 5647 5647 5648 5648 5649 5651 5652 5653 5654 5655 5656 5657 5659 5660 5661 5663 5664 5665 5666 5667 5668 5669 5669 5670 5671
5631 5631 5632 5633 5633 5633 5634 5634 5634 5633 5633 5634 5634 5638 5638 5639 5639 5640 5640 5639 5640 5640 5641 5641 5642 5643 5645 5646 5646 5647 5648 5649 5651 5652 5653 5654 5655 5655 5656 5657 5658 5659 5660 5660
5623 5623 5623 5625 5625 5625 5625 5626 5627 5627 5626 5626 5626 5631 5630 5631 5631 5631 5631 5631 5632 5632 5633 5634 5634 5635 5636 5637 5638 5639 5640 5641 5642 5643 5643 5644 5645 5645 5646 5647 5648 5648 5649 5649
5615 5615 5615 5616 5619 5618 5617 5618 5618 5619 5618 5618 5619 5623 5622 5623 5623 5623 5623 5623 5624 5624 5625 5626 5627 5627 5628 5629 5630 5631 5631 5632 5632 5633 5633 5634 5634 5635 5636 5636 5637 5637 5637 5637
5608 5608 5609 5609 5609 5609 5609 5610 5610 5610 5610 5610 5611 5613 5614 5614 5615 5615 5615 5615 5615 5616 5617 5618 5619 5619 5620 5620 5621 5622 5622 5622 5623 5623 5623 5623 5624 5624 5624 5625 5625 5625 5625 5625
5600 5600 5600 5601 5601 5601 5602 5602 5602 5602 5602 5602 5604 5604 5606 5606 5606 5606 5607 5607 5607 5608 5609 5610 5611 5611 5611 5612 5612 5613 5613 5613 5613 5613 5613 5613 5613 5613 5613 5613 5613 5613 5613 5612
5592 5592 5593 5593 5593 5593 5593 5594 5594 5594 5594 5594 5595 5596 5598 5598 5598 5598 5598 5599 5600 5600 5601 5602 5602 5602 5603 5603 5603 5604 5604 5604 5604 5604 5603 5603 5603 5603 5602 5602 5601 5601 5600 5599
5585 5585 5585 5585 5585 5584 5585 5587 5586 5586 5586 5587 5587 5590 5590 5590 5590 5591 5591 5592 5592 5593 5593 5593 5593 5594 5594 5594 5594 5594 5594 5594 5594 5594 5594 5593 5593 5592 5591 5590 5590 5589 5588 5587
5577 5577 5577 5577 5578 5577 5581 5579 5578 5578 5579 5579 5579 5581 5581 5582 5583 5583 5584 5584 5584 5584 5585 5585 5585 5585 5585 5585 5585 5585 5585 5585 5584 5584 5584 5583 5582 5581 5580 5579 5578 5577 5576 5574
5570 5570 5569 5569 5568 5569 5572 5572 5571 5571 5572 5572 5572 5573 5573 5574 5574 5575 5576 5576 5576 5576 5576 5576 5576 5576 5576 5576 5575 5575 5575 5575 5575 5574 5573 5572 5571 5570 5569 5568 5566 5565 5563 5562
5562 5562 5562 5562 5561 5562 5566 5565 5564 5565 5565 5566 5565 5566 5566 5566 5567 5569 5568 5567 5567 5567 5567 5567 5567 5567 5567 5567 5566 5566 5566 5565 5565 5564 5563 5562 5561 5560 5558 5556 5555 5553 5551 5550
5554 5554 5554 5554 5553 5554 5558 5557 5557 5559 5560 5559 5558 5558 5558 5559 5560 5560 5560 5559 5559 5559 5558 5558 5558 5558 5558 5558 5557 5557 5557 5556 5556 5554 5553 5552 5551 5549 5547 5545 5543 5541 5539 5538
5546 5547 5547 5547 5547 5550 5550 5550 5550 5551 5551 5550 5550 5551 5551 5551 5551 5551 5551 5551 5551 5550 5550 5549 5549 5549 5549 5548 5548 5548 5547 5547 5546 5545 5543 5542 5540 5538 5536 5534 5532 5529 5527 5525
5538 5540 5540 5541 5543 5543 5542 5542 5543 5543 5543 5543 5543 5543 5543 5543 5543 5543 5543 5543 5542 5542 5541 5541 5540 5540 5539 5539 5539 5538 5538 5537 5536 5535 5533 5532 5530 5528 5525 5523 5521 5518 5516 5514
5530 5531 5531 5532 5534 5535 5535 5534 5535 5535 5535 5535 5535 5536 5536 5536 5536 5536 5535 5535 5534 5534 5533 5532 5531 5531 5530 5530 5530 5529 5528 5527 5526 5524 5523 5521 5519 5517 5514 5512 5509 5507 5505 5502
5522 5522 5522 5523 5526 5526 5527 5527 5527 5527 5528 5528 5528 5528 5528 5528 5528 5528 5527 5527 5526 5525 5525 5524 5523 5522 5522 5521 5521 5520 5519 5517 5516 5514 5512 5510 5508 5506 5503 5501 5498 5496 5493 5491
5514 5514 5515 5516 5518 5518 5519 5519 5520 5520 5520 5520 5521 5521 5521 5520 5520 5520 5520 5519 5518 5518 5517 5516 5515 5514 5513 5512 5511 5510 5509 5507 5506 5504 5502 5499 5497 5495 5492 5490 5487 5484 5482 5479